Regional Weather Roundup
Issued by NWS State College, PA

Home | Current Version | Previous Version | Text Only | Print | Product List | Glossary On
Versions: 1 2 3 4 5 6 7 8 9 10 11 12 13 14 15 16 17 18 19 20 21 22 23 24 25 26 27 28 29 30 31 32 33 34 35 36 37 38 39 40 41 42 43 44 45 46 47 48 49 50
000
ASUS41 KCTP 171810
RWRCTP

REGIONAL WEATHER ROUNDUP
NATIONAL WEATHER SERVICE STATE COLLEGE PA
100 PM EST SUN DEC 17 2017

Note: "fair" indicates few or no clouds below 12,000 feet with no
significant weather and/or obstructions to visibility.

* = STATION THAT DOES NOT REPORT PRECIPITATION /E.G. RAIN...SNOW...ETC/
    THUNDER OR FOG.

PAZ002>004-007>009-013>016-020>023-029>032-171900-
WESTERN PENNSYLVANIA

CITY           SKY/WX    TMP DP  RH WIND       PRES   REMARKS
ERIE           CLOUDY    29  25  85 CALM      30.17F FOG
MEADVILLE      CLOUDY    28  27  96 E3        30.13F
FRANKLIN*      CLOUDY    30  29  96 CALM      30.13F FOG
NEW CASTLE     FAIR      35  29  78 CALM      30.15F
BEAVER COUNTY  NOT AVBL
BUTLER*        MOSUNNY   38  28  67 S3        30.14F
PITTSBURGH INT CLOUDY    42  29  59 SW7       30.14F
PITTSBURGH     CLOUDY    39  27  62 S7        30.14F
INDIANA*       SUNNY     37  30  75 CALM      30.18F
LATROBE        CLOUDY    41  28  60 SW7       30.17F
WASHINGTON CO* CLOUDY    41  29  62 S5        30.17F
$$

PAZ004>006-010>012-017>019-024>028-033>037-041-042-045-046-049>053-171900-
CENTRAL PENNSYLVANIA

CITY           SKY/WX    TMP DP  RH WIND       PRES   REMARKS
BRADFORD       CLOUDY    30  29  96 VRB5      30.11F FOG
DUBOIS         CLOUDY    31  28  89 CALM      30.13S FOG
CLEARFIELD     CLOUDY    31  28  89 CALM      30.16F
JOHNSTOWN      CLOUDY    37  27  67 SW5       30.10F
ALTOONA        CLOUDY    40  31  70 SW6       30.15F
STATE COLLEGE  SUNNY     32  27  80 CALM      30.17F
WILLIAMSPORT   CLOUDY    37  27  67 CALM      30.20F
SELINSGROVE    CLOUDY    35  27  72 CALM      30.22F
FT INDIANTOWN  CLOUDY    37  29  72 CALM      30.21F
CAPITAL CITY   MOSUNNY   38  26  62 CALM      30.22F
HARRISBURG     CLOUDY    36  29  75 CALM      30.22F
YORK           CLOUDY    41  30  65 CALM      30.21F
$$

PAZ038>040-043-044-047-048-054-055-060>062-067>071-171900-
EASTERN PENNSYLVANIA

CITY           SKY/WX    TMP DP  RH WIND       PRES   REMARKS
SCRANTON       CLOUDY    31  23  72 CALM      30.20F
MOUNT POCONO   CLOUDY    31  26  82 S5        30.14F
ALLENTOWN      CLOUDY    35  24  64 N3        30.23F
QUAKERTOWN*    CLOUDY    37  25  60 CALM      30.23F
READING        CLOUDY    38  29  70 CALM      30.22F
LANCASTER      CLOUDY    39  30  70 CALM      30.21F
COATESVILLE    CLOUDY    41  28  60 CALM      30.21F
POTTSTOWN      PTSUNNY   37  25  61 CALM      30.24F
BLUE BELL      MOSUNNY   37  28  70 CALM      30.24F
DOYLESTOWN     MOSUNNY   38  25  59 CALM      30.22F
WILLOW GROVE   NOT AVBL
NORTH PHILA    PTSUNNY   43  30  60 CALM      30.25F
PHILADELPHIA   CLOUDY    42  28  57 CALM      30.24F
$$




USA.gov is the U.S. government's official web portal to all federal, state and local government web resources and services.